Weather Roundup
Issued by NWS

Home | Current Version | Previous Version | Text Only | Print | Product List | Glossary On
Versions: 1 2 3 4 5 6 7 8 9 10 11 12 13 14 15 16 17 18 19 20 21 22 23 24 25 26 27 28 29 30 31 32 33 34 35 36 37 38 39 40 41 42 43 44 45 46 47 48 49 50
909
NZUS93 KARX 120059
HRRWXR

CURRENT HOURLY OBSERVATIONS ACROSS
MUCH OF THE UPPER MISSISSIPPI VALLEY
NATIONAL WEATHER SERVICE LA CROSSE WI
700 PM CST THU FEB 11 2016


...SOUTHEAST MINNESOTA...


CITY           SKY/WX    TMP DP  RH WIND       PRES   REMARKS
ROCHESTER      CLOUDY    11   3  70 SW8       30.22F WCI  -1
ROCHESTER/MAYO CLOUDY    14   4  64 SW7       30.24S WCI   3
WINONA         CLOUDY    18   3  53 W3        30.29R
AUSTIN         CLOUDY    10   5  79 SW7       30.23S WCI   0
ALBERT LEA     CLOUDY    12   3  67 SW5       30.23R WCI   4
DODGE CENTER   CLOUDY    10   3  72 SW7       30.21S WCI   0
PRESTON        CLOUDY    10   1  68 W3        30.24R
OWATONNA       CLOUDY    14   3  62 S8        30.22F WCI   3
FARIBAULT      CLOUDY    14   5  67 SW5       30.24S WCI   6
$$

...ELSEWHERE IN MINNESOTA...


CITY           SKY/WX    TMP DP  RH WIND       PRES   REMARKS
MINNEAPOLIS    FLURRIES  16   6  65 SW5       30.25R WCI   9
INTNL FALLS    CLOUDY     9  -2  61 W8        30.13R WCI  -3
DULUTH         CLOUDY    11  -2  56 W12       30.12R WCI  -3
RED WING       NOT AVBL
REDWOOD FALLS  CLOUDY    16  12  84 SW7       30.23R WCI   6
MANKATO        CLOUDY    16   3  57 S7        30.23S WCI   6
WORTHINGTON    CLOUDY    12   9  85 S7        30.20R WCI   2
FAIRMONT       PTCLDY    12   5  73 S10       30.20S WCI  -1
$$

...SOUTHWEST WISCONSIN...


CITY           SKY/WX    TMP DP  RH WIND       PRES   REMARKS
LA CROSSE      CLOUDY    16   1  51 SW7       30.27R WCI   6
PRAIRIE DU CHI PTCLDY    15   0  50 W3        30.30R
BOSCOBEL       CLOUDY    14   0  53 SW6       30.30R WCI   5
LONE ROCK      NOT AVBL
PLATTEVILLE    CLOUDY    14   3  60 W6        30.26R WCI   5
FORT MC COY    CLOUDY    17  -1  44 W7        30.26R WCI   7
VIROQUA        CLOUDY    13   1  57 SW9       30.22S WCI   1
WIS DELLS      CLOUDY    14  -3  45 SW7       30.23R WCI   4
$$

...ELSEWHERE IN WISCONSIN...


CITY           SKY/WX    TMP DP  RH WIND       PRES   REMARKS
MILWAUKEE      PTCLDY    16  -1  47 W6        30.26S WCI   7
MADISON        MOCLDY    15  -1  49 VRB7      30.25R WCI   5
GREEN BAY      CLOUDY    13  -2  51 SW7       30.21R WCI   3
EAU CLAIRE     CLOUDY    15  -1  49 SW8       30.23R WCI   4
BLACK RVR FLS  CLOUDY    17  -4  39 W5        30.24R WCI  10
MEDFORD        CLOUDY    11  -5  49 W7        30.15S WCI   0
WAUSAU         CLOUDY    14  -1  51 NW3       30.16R
WIS RAPIDS     CLOUDY    16  -5  39 W7        30.21S WCI   6
MARSHFIELD     CLOUDY    14  -4  44 W10       30.17R WCI   1
RICE LAKE      CLOUDY    13   1  56 SW6       30.22S WCI   4
$$

...NORTHEAST IOWA...


CITY           SKY/WX    TMP DP  RH WIND       PRES   REMARKS
WATERLOO       CLOUDY    15   4  61 CALM      30.27R
DUBUQUE        PTCLDY    16   5  62 CALM      30.26R
DECORAH        CLOUDY    10   0  61 SW3       30.24S
MASON CITY     CLOUDY    12   4  70 SW3       30.26R
CHARLES CITY   CLOUDY    12   1  62 CALM      30.26S
OELWEIN        CLOUDY    14   3  62 CALM      30.26S
$$

...ELSEWHERE IN IOWA...


CITY           SKY/WX    TMP DP  RH WIND       PRES   REMARKS
DES MOINES     LGT SNOW  19  12  74 E5        30.27R WCI  12
IOWA CITY      CLOUDY    21   8  57 SE3       30.30S
FORT DODGE     CLOUDY    14   9  79 SE5       30.25S WCI   6
MARSHALLTOWN   CLOUDY    18   8  65 CALM      30.26R
CEDAR RAPIDS   CLOUDY    21   9  59 SW5       30.27R WCI  15
$$

...NORTHERN ILLINOIS...


CITY           SKY/WX    TMP DP  RH WIND       PRES   REMARKS
CHICAGO-OHARE  PTCLDY    17   5  59 W5        30.27S WCI  10
CHICAGO-MIDWAY PTCLDY    21   0  39 W6        30.29R WCI  13
MOLINE         MOCLDY    22   6  50 SE3       30.29R
ROCKFORD       CLOUDY    18   5  57 CALM      30.30R
PEORIA         CLOUDY    24   5  44 SE5       30.30S WCI  18
$$

NOTE: "FAIR" INDICATES FEW OR NO CLOUDS BELOW 12,000 FEET WITH NO
SIGNIFICANT WEATHER AND/OR OBSTRUCTIONS TO VISIBILITY. WIND
SPEEDS ARE IN MILES-PER-HOUR.




USA.gov is the U.S. government's official web portal to all federal, state and local government web resources and services.